SAUDISAT 4 (40016 NORAD) Tracking and Keplerian Element Data

This shows tracking and keplerian element data for the satellite.

Feedback or suggestion? Click here.




ElementValue
Catalog40016
NameSAUDISAT 4
Epoch Orbit21945
Epoch Day198.76176996
Epoch Year2018
RAAN78.7935
Inclination97.8105
Eccentricity0.0049869
Argument of Perigee91.5753
Mean Anonmoly269.117
Mean Motion14.75194108
Decay Rate1.8E-07
L11 40016U 14033G 18198.76176996 .00000018 00000-0 99153-5 0 9991
L22 40016 97.8105 78.7935 0049869 91.5753 269.1170 14.75194108219455

Live tracking and technical data element details for SAUDISAT 4 (NORAD 40016). SAUDISAT 4 can be tracked NOW for your location showing map with azimuth and elevation plus other details from your city location.

Track the satellite on the map from your city or location and see movement details for azimuth, elevation, latitude, longitude, range, height, and movement on the map or in text.







IsCatalogInMostPopularTable: catalog: 40016, numindb: 80
Update: records affected: 1



GetName: 40016 SAUDISAT 4

Hit Count: updated at: Thu, 19 Jul 2018 21:08:07 GMT